[[{"header":{"parameterUnit":"m.s-1","parameterCategory":1,"la1":30.2991,"la2":30.254,"lo1":-89.0895,"lo2":-89.0444,"dy":0.0017,"dx":0.0017,"nx":28,"ny":28,"refTime":"2025-03-12T09:00:00:Z","depth":0,"parameterNumber":2,"parameterNumberName":"U-component_of_WINDS"},"data":[0,0,0,0,0,0,0,0,0,0,0,0,0,0,0,0,0,0,0,0,0,0,0,0,0,0,0,0,0,0,0,0,0,0,0,0,0,0,0,0,0,0,0,0,0,0,0,0,0,0,0,0,0,0,0,0,0,0,1.7743,1.7744,0,1.78,1.78,1.7801,1.7809,1.7809,1.7808,1.7808,1.7862,1.7864,1.7866,0,0,0,0,0,0,0,0,0,0,0,0,0,1.7639,1.7641,1.7743,1.7744,1.7745,1.78,1.78,1.7801,1.781,1.7809,1.7808,1.7808,1.7862,1.7864,1.7866,0,0,0,0,0,0,0,0,0,0,0,0,0,1.7688,1.7641,1.7743,1.7755,1.7757,1.7799,1.78,1.7801,1.781,1.7809,1.7808,1.7807,1.7861,1.7864,1.7867,1.7899,0,0,1.7875,1.7877,0,0,0,0,0,0,0,0,1.7686,1.7692,1.7753,1.7755,1.7757,1.7797,1.7783,1.7834,1.781,1.779,1.7808,1.7807,1.7841,1.7845,1.7857,1.7902,1.7904,1.7876,1.7877,1.7879,1.7879,0,0,0,0,0,0,0,1.7682,1.769,1.7765,1.7754,1.7756,1.7757,1.7763,1.7793,1.7819,1.7791,1.7792,1.7799,1.7842,1.7855,1.7859,1.7905,1.7875,1.7878,1.788,1.7881,1.7978,1.7979,0,0,0,0,0,0,1.7677,1.7687,1.7764,1.7767,1.7719,1.776,1.7767,1.7785,1.7818,1.7823,1.7799,1.7799,1.785,1.7855,1.7861,1.7901,1.7879,1.7881,1.7883,1.7977,1.7978,1.7979,0,0,0,0,0,0,1.7675,1.7684,1.7761,1.7727,1.7737,1.7762,1.7782,1.7786,1.7799,1.7825,1.7829,1.7808,1.785,1.7857,1.789,1.7903,1.7882,1.7885,1.7976,1.7978,1.7979,1.7981,0,0,0,0,0,0,1.7672,1.7683,1.7696,1.7728,1.7739,1.779,1.7783,1.7788,1.7804,1.7804,1.7834,1.7838,1.785,1.7885,1.7893,1.7906,1.7887,1.7975,1.7977,1.7978,1.798,1.7983,1.7985,0,0,0,0,0,1.7668,1.7694,1.7697,1.7706,1.7757,1.7791,1.7797,1.7811,1.7806,1.7819,1.7835,1.7837,1.79,1.7889,1.7897,1.7912,1.7974,1.7976,1.7978,1.7979,1.7982,1.7985,0,0,0,0,0,0,1.7662,1.7698,1.7702,1.7739,1.7762,1.7792,1.7809,1.7814,1.7838,1.7837,1.7852,1.7859,1.7891,1.7905,1.7891,1.7945,1.7937,1.794,1.7935,1.7938,1.794,1.7936,1.789,0,0,0,0,0,1.7666,1.7692,1.7722,1.7751,1.7763,1.7784,1.78,1.7809,1.7832,1.7842,1.7861,1.7883,1.7907,1.7923,1.7948,1.7982,1.7989,1.7997,1.7999,1.8001,1.8003,1.8022,1.8026,1.7986,1.7986,1.7986,0,0,1.7672,1.7695,1.7711,1.7751,1.777,1.7795,1.7792,1.7819,1.7838,1.7846,1.7878,1.7893,1.7918,1.7952,1.7968,1.7964,1.8016,1.8003,1.8004,1.8006,1.8025,1.8029,1.8032,1.7987,1.7987,1.7986,0,0,1.7698,1.7718,1.7745,1.7764,1.7793,1.7808,1.7814,1.7844,1.7854,1.7887,1.7893,1.7915,1.7958,1.7976,1.799,1.8023,1.8025,1.803,1.8042,1.806,1.8063,1.8066,1.8077,1.8081,1.8033,1.8033,1.8033,0,1.7702,1.7742,1.7758,1.7786,1.7803,1.7812,1.7839,1.7856,1.7891,1.7902,1.7898,1.7952,1.797,1.8008,1.8016,1.8028,1.8035,1.8027,1.8062,1.8065,1.8068,1.8078,1.8082,1.8033,1.8033,1.8033,1.8033,0,1.7745,1.7773,1.7791,1.7827,1.7846,1.7873,1.7892,1.7909,1.7916,1.793,1.7964,1.7986,1.8014,1.8024,1.8031,1.8063,1.806,1.8059,1.8051,1.8072,1.8082,1.8086,1.8034,1.8034,1.8034,1.8034,0,0,1.7768,1.7812,1.7819,1.7835,1.7868,1.7889,1.7916,1.7945,1.7959,1.7983,1.8005,1.8042,1.8041,1.8057,1.8066,1.8082,1.8106,1.8079,1.808,1.8083,1.8142,1.8143,1.8147,1.8108,1.8109,1.811,1.814,0,1.7797,1.7847,1.7862,1.7903,1.7929,1.7938,1.7961,1.7983,1.7997,1.802,1.8035,1.806,1.8057,1.8067,1.8084,1.81,1.8118,1.8098,1.8128,1.8129,1.8121,1.8153,1.8153,1.8181,1.8144,1.8145,1.8145,0,1.7837,1.7863,1.7907,1.7937,1.7948,1.7969,1.7997,1.8019,1.8044,1.8053,1.8072,1.808,1.8107,1.8098,1.8136,1.8121,1.8135,1.8144,1.8146,1.8149,1.8138,1.8156,1.819,1.8194,1.8152,1.8151,1.8151,0,1.7848,1.7894,1.7926,1.794,1.7976,1.799,1.8005,1.803,1.8047,1.8071,1.8082,1.8108,1.8123,1.8142,1.8157,1.8149,1.8193,1.8185,1.82,1.82,1.8208,1.8208,1.8244,1.8218,1.8218,1.8218,1.8218,0,1.7878,1.7905,1.7932,1.7952,1.7982,1.7999,1.8027,1.8043,1.8065,1.8087,1.8096,1.8116,1.8134,1.8157,1.8168,1.8197,1.8203,1.8211,1.8213,1.821,1.8209,1.8218,1.8216,1.8219,1.8219,1.8218,1.8218,0,1.7895,1.7915,1.7951,1.7983,1.7991,1.8012,1.8038,1.8057,1.8071,1.8099,1.8107,1.8129,1.8156,1.8173,1.8206,1.8214,1.8246,1.8248,1.8238,1.8239,1.8253,1.8251,1.8297,1.8303,1.8273,1.8273,1.8273,0,1.7913,1.7934,1.7968,1.7984,1.8,1.8026,1.8044,1.8061,1.8079,1.8109,1.8124,1.8152,1.8175,1.8217,1.8236,1.8262,1.8264,1.8278,1.8268,1.8264,1.8264,1.8262,1.8264,1.828,1.828,1.828,1.828,0,1.7942,1.7951,1.7977,1.8006,1.8027,1.805,1.8074,1.8086,1.8107,1.8126,1.8155,1.8173,1.8208,1.8235,1.8263,1.8277,1.8282,1.8284,1.8288,1.8285,1.8278,1.8281,1.8242,1.8282,1.8282,1.8282,1.8282,1.8282,1.796,1.7979,1.8006,1.8034,1.8054,1.8076,1.8095,1.8113,1.8137,1.8168,1.8177,1.8206,1.823,1.8268,1.8283,1.8305,1.8303,1.831,1.8312,1.8313,1.8313,1.8275,1.8311,1.831,1.831,1.831,1.831,0,1.7988,1.8007,1.8033,1.8066,1.8088,1.8093,1.8118,1.8136,1.8163,1.8185,1.8208,1.8241,1.8267,1.8288,1.8315,1.8329,1.8332,1.8335,1.8334,1.8337,1.8314,1.8307,1.8333,1.8333,1.8333,1.8333,1.8333,1.8333,1.8006,1.8039,1.8051,1.8093,1.811,1.8141,1.8155,1.8175,1.8193,1.8229,1.8252,1.8266,1.8288,1.8317,1.8341,1.8346,1.8355,1.8358,1.8364,1.8341,1.8339,1.8337,1.833,1.836,1.836,1.8385,1.8386,1.8386]},{"header":{"parameterUnit":"m.s-1","parameterCategory":1,"la1":30.2991,"la2":30.254,"lo1":-89.0895,"lo2":-89.0444,"dy":0.0017,"dx":0.0017,"nx":28,"ny":28,"refTime":"2025-03-12T09:00:00:Z","depth":0,"parameterNumber":3,"parameterNumberName":"V-component_of_WINDS"},"data":[0,0,0,0,0,0,0,0,0,0,0,0,0,0,0,0,0,0,0,0,0,0,0,0,0,0,0,0,0,0,0,0,0,0,0,0,0,0,0,0,0,0,0,0,0,0,0,0,0,0,0,0,0,0,0,0,0,0,4.645,4.645,0,4.6409,4.6408,4.6408,4.6377,4.6377,4.6377,4.6377,4.6331,4.633,4.6329,0,0,0,0,0,0,0,0,0,0,0,0,0,4.6502,4.6501,4.645,4.645,4.6449,4.6409,4.6408,4.6408,4.6377,4.6377,4.6377,4.6377,4.6331,4.633,4.6329,0,0,0,0,0,0,0,0,0,0,0,0,0,4.6472,4.6501,4.645,4.643,4.6427,4.6409,4.6408,4.6407,4.6377,4.6377,4.6377,4.6376,4.6331,4.633,4.6328,4.6327,0,0,4.6324,4.6323,0,0,0,0,0,0,0,0,4.6473,4.647,4.6433,4.6431,4.6428,4.6398,4.6409,4.638,4.6378,4.6396,4.6377,4.6376,4.6353,4.635,4.6343,4.6324,4.6322,4.6324,4.6323,4.6322,4.6322,0,0,0,0,0,0,0,4.6475,4.6471,4.6434,4.6433,4.643,4.6421,4.6417,4.6404,4.6377,4.6395,4.6392,4.6388,4.6352,4.6344,4.6341,4.6322,4.6324,4.6322,4.6322,4.6321,4.6301,4.6302,0,0,0,0,0,0,4.6481,4.6473,4.6435,4.6433,4.645,4.6421,4.6416,4.6408,4.6377,4.6372,4.6388,4.6387,4.6347,4.6343,4.634,4.6337,4.6322,4.6321,4.632,4.6301,4.6301,4.6302,0,0,0,0,0,0,4.6482,4.6478,4.6437,4.6452,4.6446,4.642,4.6412,4.6407,4.64,4.6373,4.6367,4.6386,4.6346,4.6342,4.6331,4.6335,4.632,4.6319,4.63,4.6301,4.6301,4.633,0,0,0,0,0,0,4.6484,4.6479,4.6478,4.6453,4.6446,4.6429,4.6412,4.6407,4.6398,4.6395,4.6369,4.6364,4.6346,4.6333,4.6329,4.6332,4.6318,4.63,4.6301,4.6301,4.6328,4.6331,4.6334,0,0,0,0,0,4.6486,4.6487,4.6478,4.6474,4.6445,4.643,4.6426,4.6406,4.6398,4.6397,4.638,4.6365,4.6335,4.6332,4.6327,4.633,4.63,4.63,4.6301,4.6327,4.6331,4.6334,0,0,0,0,0,0,4.6512,4.6483,4.6473,4.6466,4.6451,4.6425,4.6423,4.641,4.6395,4.6393,4.6368,4.6362,4.6354,4.6341,4.6339,4.6327,4.6315,4.6315,4.6337,4.634,4.6342,4.6346,4.6316,0,0,0,0,0,4.6517,4.6508,4.6483,4.6479,4.6472,4.6449,4.6441,4.6428,4.641,4.6403,4.6385,4.6368,4.6354,4.6346,4.6332,4.6326,4.632,4.6326,4.6328,4.6331,4.6331,4.6328,4.6331,4.6304,4.6304,4.6304,0,0,4.6528,4.6511,4.6506,4.6484,4.647,4.6461,4.6443,4.6434,4.6427,4.6401,4.639,4.6376,4.6356,4.6348,4.6343,4.6336,4.6337,4.6332,4.6334,4.6333,4.6329,4.6332,4.6334,4.6305,4.6305,4.6305,0,0,4.6542,4.6528,4.6524,4.6511,4.6491,4.6476,4.6475,4.6451,4.6441,4.643,4.6411,4.6402,4.6379,4.6366,4.6356,4.6366,4.6352,4.6362,4.6376,4.6374,4.6376,4.6377,4.6382,4.6384,4.6363,4.6363,4.6363,0,4.6557,4.6543,4.6523,4.6515,4.6506,4.6484,4.648,4.6468,4.6444,4.6438,4.6431,4.6404,4.6388,4.6377,4.638,4.6372,4.637,4.6365,4.6377,4.6379,4.638,4.6384,4.6386,4.6364,4.6364,4.6364,4.6364,0,4.6563,4.6554,4.6553,4.6532,4.6523,4.6517,4.6495,4.6488,4.6476,4.6461,4.645,4.6431,4.6413,4.6409,4.6396,4.6397,4.6393,4.6382,4.6369,4.6384,4.6388,4.6389,4.6366,4.6366,4.6365,4.6365,0,0,4.6592,4.6562,4.6562,4.6553,4.653,4.6522,4.6515,4.6499,4.6494,4.6479,4.6472,4.6454,4.6444,4.6433,4.6418,4.6416,4.6427,4.6405,4.6404,4.641,4.6428,4.6437,4.6439,4.6417,4.6417,4.6417,4.643,0,4.6604,4.6591,4.6574,4.6567,4.6559,4.6538,4.6532,4.6517,4.6503,4.6493,4.6478,4.6466,4.6453,4.6446,4.6443,4.6426,4.643,4.6425,4.6411,4.6411,4.6418,4.6441,4.6451,4.6463,4.6431,4.6431,4.6431,0,4.6615,4.6603,4.6596,4.6575,4.6571,4.6566,4.6551,4.6542,4.6524,4.6515,4.6503,4.6487,4.6479,4.6467,4.6455,4.6452,4.6445,4.6436,4.6436,4.6435,4.6423,4.6441,4.6467,4.6469,4.6433,4.6433,4.6433,0,4.6639,4.662,4.6614,4.6607,4.6582,4.6579,4.6568,4.6551,4.6543,4.6529,4.6524,4.6509,4.6501,4.6489,4.647,4.6463,4.646,4.6447,4.6452,4.6453,4.6453,4.6453,4.6479,4.6447,4.6447,4.6447,4.6447,0,4.6654,4.6651,4.6625,4.6621,4.6617,4.6596,4.6592,4.6579,4.6564,4.6557,4.6538,4.6531,4.6506,4.6496,4.6481,4.6474,4.647,4.6462,4.6458,4.6464,4.6466,4.646,4.6459,4.6447,4.6447,4.6447,4.6447,0,4.668,4.6662,4.6654,4.6632,4.6626,4.6624,4.6605,4.66,4.6586,4.6578,4.6574,4.6551,4.654,4.6519,4.6501,4.649,4.6487,4.6479,4.6493,4.6491,4.6498,4.6498,4.6522,4.6524,4.649,4.649,4.6491,0,4.6691,4.6689,4.6667,4.6662,4.6652,4.6643,4.6636,4.6615,4.6608,4.6589,4.6587,4.6574,4.6562,4.6544,4.6526,4.6512,4.6505,4.6514,4.6502,4.6509,4.6506,4.6507,4.6507,4.6517,4.6517,4.6518,4.6518,0,4.6714,4.6705,4.6696,4.6684,4.6676,4.6664,4.6652,4.6649,4.6625,4.6618,4.6607,4.6598,4.658,4.6568,4.6552,4.654,4.6525,4.6522,4.6523,4.6529,4.6538,4.6535,4.6502,4.6521,4.6521,4.6521,4.6521,4.652,4.6733,4.6731,4.6715,4.6706,4.6695,4.6684,4.6679,4.6665,4.6655,4.6641,4.6629,4.6618,4.6602,4.6579,4.6568,4.656,4.6553,4.6553,4.6554,4.6554,4.6558,4.6539,4.6556,4.6556,4.6556,4.6556,4.6556,0,4.6756,4.6745,4.6736,4.6721,4.6714,4.6701,4.6688,4.6682,4.6674,4.666,4.665,4.6637,4.6625,4.6606,4.6593,4.659,4.6583,4.6587,4.6588,4.6585,4.6564,4.6565,4.6593,4.6593,4.6593,4.6593,4.6593,4.6593,4.6767,4.6762,4.6752,4.6742,4.6731,4.6722,4.6715,4.6705,4.6695,4.6682,4.6673,4.6661,4.6645,4.6631,4.6619,4.6614,4.661,4.6617,4.661,4.659,4.6587,4.6583,4.6585,4.6616,4.6616,4.6632,4.6632,4.6632]}]]